Regional Weather Roundup
Issued by NWS

Home | Current Version | Previous Version | Text Only | Print | Product List | Glossary On
Versions: 1 2 3 4 5 6 7 8 9 10 11 12 13 14 15 16 17 18 19 20 21 22 23 24 25 26 27 28 29 30 31 32 33 34 35 36 37 38 39 40 41 42 43 44 45 46 47 48 49 50
000
ASHW40 PHFO 201713
RWRHI

WEATHER ROUNDUP FOR HAWAII
NATIONAL WEATHER SERVICE HONOLULU HI
700 AM HST FRI OCT 20 2017

THIS IS AN AUTOMATED REPORT THAT HAS NOT BEEN QUALITY CONTROLLED.

NOTE..."FAIR" INDICATES FEW OR NO CLOUDS BELOW 12,000 FEET WITH NO
SIGNIFICANT WEATHER AND/OR OBSTRUCTIONS TO VISIBILITY.

* - THESE SITES REPORT LIMITED FIELDS
# - BUOY DATA PROVIDED BY PACIFIC ISLANDS OCEAN OBSERVING SYSTEM.

HIZ001>004-201800-
KAUAI-NIIHAU-

CITY           SKY/WX    TMP DP  RH WIND       PRES   REMARKS
LIHUE APT      MOCLDY    78  67  68 NE22      30.11R
PORT ALLEN*      N/A     75 N/A N/A E18G26      N/A
POIPU*           N/A     77 N/A N/A NE12G26     N/A
PRINCEVILLE*     N/A     75 N/A N/A SE7G14      N/A
KOKOLE POINT*  NOT AVBL
MOLOAA DAIRY*    N/A     75  66  73 E3G12       N/A
WAIMEA HTS*    NOT AVBL
PUU OPAE*      NOT AVBL
PUU LUA*       NOT AVBL
MAKAHA RIDGE*  NOT AVBL
$$

HIZ005>011-201800-
OAHU-

CITY           SKY/WX    TMP DP  RH WIND       PRES   REMARKS
HONOLULU       LGT RAIN  75  67  76 NE17G23   30.04S
KALAELOA       MOCLDY    75  66  73 E9        30.06R
KANEOHE MCB    MOCLDY    78  69  73 NE13G23   30.05S
WHEELER FIELD  CLOUDY    73  66  80 NE8       30.07R
BELLOWS*       NOT AVBL
KAHUKU*        NOT AVBL
WHEELER*       NOT AVBL
WAIANAE HARBOR NOT AVBL
DILLINGHAM*      N/A     73  66  78 W3G12       N/A
KAHUKU TRN*      N/A     73  68  83 W13G28      N/A
KAWAILOA*        N/A     70  66  88 E18G32      N/A
KII*             N/A     77  70  78 E22G28      N/A
MAKUA RANGE*     N/A     79  66  65 W9G22       N/A
OAHU FOREST NW NOT AVBL
SCHOFIELD BRK*   N/A     73  66  78 MISG        N/A
SCHOFIELD S*   NOT AVBL
WAIANAE VLY*   NOT AVBL
KUAOKALA*      NOT AVBL
HONOULIUULI*   NOT AVBL
MOKUOLOE IS*   NOT AVBL
PALEHUA*       NOT AVBL
WAIAWA PHB*    NOT AVBL
$$

HIZ012>013-201800-
MOLOKAI-

CITY           SKY/WX    TMP DP  RH WIND       PRES   REMARKS
MOLOKAI AIRPT  RAIN      75  69  81 NE13G26   30.06S
KALAUPAPA      NOT AVBL
MAKAPULAPAI*   NOT AVBL
MOLOKAI 1*     NOT AVBL
PUU ALII*      NOT AVBL
$$

HIZ016-201800-
KAHOOLAWE-

CITY           SKY/WX    TMP DP  RH WIND       PRES   REMARKS
KAHOOLAWE*     NOT AVBL
HAKIOAWA*      NOT AVBL
HONOKANAIA*      N/A     78  64  62 VRB8G28   29.95S
KANELOA*         N/A     75  61  60 NE12G40   30.08S
KEALIALALO*    NOT AVBL
LUA MAKIKA*    NOT AVBL
$$

HIZ014>015-201800-
LANAI-

CITY           SKY/WX    TMP DP  RH WIND       PRES   REMARKS
LANAI CITY     FAIR      71  64  78 NE22      30.07F
LANAI 1*       NOT AVBL
$$

HIZ017>028-201800-
MAUI-

CITY           SKY/WX    TMP DP  RH WIND       PRES   REMARKS
KAHULUI        PTCLDY    76  68  76 NE9       30.05R
KAPALUA-W MAUI PTCLDY    73  66  78 NE21G29   30.04R
HANA AIRPORT   NOT AVBL
HANA*            N/A     77 N/A N/A NE9G15      N/A
HALEAKALA SUMM   N/A     43  28  56 NE33G51     N/A
MAALAEA BAY*   NOT AVBL
HALEAKALA*     NOT AVBL
KAUPO GAP*     NOT AVBL
KULA 1*          N/A    N/A N/A N/A E3G10       N/A
$$

HIZ023>026-201800-
BIG ISLAND OF HAWAII COAST AND LOWER SLOPES-

CITY           SKY/WX    TMP DP  RH WIND       PRES   REMARKS
KAILUA KONA    PTCLDY    74  61  63 E3        29.97R
HILO           MOCLDY    73  68  84 N7        30.05R
HONOKAA*         N/A     70 N/A N/A VRB1        N/A
KAWAIHAE MWT*    N/A     81 N/A N/A E17G37      N/A
KAWAIHAE*      NOT AVBL
SOUTH POINT*     N/A     73 N/A N/A N16G25      N/A
UPOLU AIRPORT* NOT AVBL
KAMUELA*         N/A     64  59  82 NE30      30.08F
HAKALAU*         N/A     50  48  93 N2G9        N/A
KALOKO-HONOKO* NOT AVBL
PALI 2*          N/A     66  57  72 S15G26      N/A
KEALAKOMO*       N/A     77  63  61 VRB23G38    N/A
KAUPULEHU*     NOT AVBL
KAPAPALA*        N/A     67  57  71 NW5G12      N/A
LOWER KAHUKU*  NOT AVBL
PUHE CS*       NOT AVBL
PUHO CS*       NOT AVBL
PTA KEAMUKU*     N/A     63  54  72 S7G18       N/A
WAIKOLOA*      NOT AVBL
$$

HIZ027>028-201800-
BIG ISLAND OF HAWAII INTERIOR AND SUMMMITS-

CITY           SKY/WX    TMP DP  RH WIND       PRES   REMARKS
BRADSHAW FIELD CLOUDY    50  37  61 CALM      30.30R
MK VISITOR CEN   N/A     52   7  16 N26G38      N/A
MAUNA KEA*       N/A     34   5  29 NE36        N/A  WCI  19
MAUNA LOA*     NOT AVBL
MAUNA LOA 1*   NOT AVBL
PTA KIPUKA*      N/A     75  72  88 SE2G12      N/A
PTA RANGE 17*    N/A     72  61  68 NW13G31     N/A
PTA WEST*        N/A     57  52  82 NE12        N/A
NENE CABIN*    NOT AVBL
AHUMOA*        NOT AVBL
PTA PORTABLE*  NOT AVBL
PUU MALI*        N/A     55  45  67 E21G32      N/A
$$

HIC003-201800-
NORTHWEST ISLANDS-

CITY           SKY/WX    TMP DP  RH WIND       PRES   REMARKS
MIDWAY ISLAND  PTCLDY    75  72  88 E10       30.21
MIDWAY NOS*    NOT AVBL
FRENCH FRIGATE NOT AVBL
$$

PHZ110>124-180-201800-
BUOY REPORTS

STATION/POSITION TIME  TEMP    WIND        PRES    WAVE   SWELL
                       AIR SEA DIR/SP/G            HT/PER HT/DIR
                 (UTC) (F)     (DEG/KT/KT) (MB)    (FT/S) (FT/D)
BUOY 51001       1650   79 80   70/ 17/ 21 1021.2R  10/10   7/ 80
BUOY 51101       1650   79 80   80/ 17/ 21 1021.4R  11/ 9   8/ 90
BUOY 51100       NOT AVBL
BUOY 51002       1650   79 80   60/ 21/ 25 1014.0R  10/ 9   7/ 60
BUOY 51003       1650   80 81   60/ 19/ 25 1015.2R  10/ 9   7/ 70
BUOY 51004       1650   79 80   50/ 17/ 21 1014.0R   9/ 8   5/350
WAIMEA BAY#      NOT AVBL
MOKAPU POINT#    NOT AVBL
LANAI#           NOT AVBL
BARBERS PT 2#    NOT AVBL
PAUWELA#         NOT AVBL
HILO#            NOT AVBL
KANEOHE BAY#     NOT AVBL
KANEOHE BAY 2#   NOT AVBL
HANALEI#         NOT AVBL
KAHULUI HARBOR   NOT AVBL
HONOLULU HARBOR  NOT AVBL
PEARL HARBOR#    NOT AVBL
KILO NALU        NOT AVBL
HILO HARBOR      NOT AVBL
MOKUOLOE         NOT AVBL
NAWILIWILI       NOT AVBL
WHOTS BUOY       NOT AVBL
BUOY 51028       NOT AVBL
$$

......................KEY........................................
  SKY/WX - SKY CONDITIONS/PRESENT WEATHER
  TMP    - TEMPERATURE IN FAHRENHEIT
  DWPT   - DEWPOINT IN FAHRENHEIT
  RH     - RELATIVE HUMIDITY IN PERCENT
  WIND   - DIRECTION AND SPEED /MPH FOR ISLANDS...KTS FOR BUOYS/
  PRES   - MEAN SEA LEVEL PRESSURE IN INCHES OF HG
  VSB    - VISIBILITY IN MILES
  HX     - HEAT INDEX
  WCI    - WIND CHILL INDEX
  VRB    - VARIABLE WIND DIRECTION
  N/A    - NOT AVAILABLE



USA.gov is the U.S. government's official web portal to all federal, state and local government web resources and services.